Other Surface Observations
Issued by NWS Tucson, AZ

Home | Current Version | Previous Version | Text Only | Print | Product List | Glossary On
Versions: 1 2 3 4 5 6 7 8 9 10 11 12 13 14 15 16 17 18 19 20 21 22 23 24 25 26 27 28 29 30 31 32 33 34 35 36 37 38 39 40 41 42 43 44 45 46 47 48 49 50
000
SXUS55 KTWC 272115
OSOTWC

WEATHER ROUNDUP FOR SOUTHEAST ARIZONA
NATIONAL WEATHER SERVICE TUCSON AZ
215 PM MST WED JUL 27 2016

AZZ504>506-514-272215-
LOCATION       SKY/WX    TMP DP  RH WIND       PRES   REMARKS
TUCSON         SUNNY    103  58  22 CALM      29.94F HX 102
DAVIS-MONTHAN  SUNNY    100  60  26 NW12      29.93F HX 100
CHILDRENS PARK N/A      N/A N/A  25 NW4               PIMA CO DEQ
ALVERNON/22ND  N/A       98 N/A N/A NW5               PIMA CO DEQ
CHERRY/GLENN   N/A      N/A N/A N/A N/A               PIMA CO DEQ
TANGERINE      N/A       99 N/A N/A W5                PIMA CO DEQ
CONTL RANCH    N/A      101  59  25 N6                PIMA CO DEQ
GRANT/1ST      N/A       99  58  26 NW9               PIMA CO DEQ
CRAYCROFT/22ND N/A       98  58  27 N/A               PIMA CO DEQ
GOLFLINKS/KOLB N/A      N/A N/A N/A N/A               PIMA CO DEQ
AJO/12TH       N/A       99  60  28 SW4               PIMA CO DEQ
SAGUARO EAST   N/A       36   7  29 W5                PIMA CO DEQ
FAIRGROUNDS    N/A       96 N/A N/A N/A               PIMA CO DEQ
SAGUARO        N/A      101  61  27 W9G16             *SABINO CYN
SAN CARLOS     N/A      106  58  21 SW8G14            *SAN CARLOS
GREEN VALLEY   N/A       94  60  32 S4                PIMA CO DEQ
HORSE CAMP CYN N/A       95  58  29 W9G16             *ARAVAIPA CYN
RINCON MTNS    NOT AVBL
$$

AZZ509>511-272215-
LOCATION       SKY/WX    TMP DP  RH WIND       PRES   REMARKS
SAFFORD        SUNNY     99  56  23 CALM      29.91F
STRAY HORSE    N/A       84  53  35 SW3               *
TRAIL CABIN    N/A       70  50  50 SW3G17            *N OF GRANVILLE
BLACK HILLS    NOT AVBL
DRY LAKE       N/A       89  50  26 N4G10             *NATANES MTNS
NOON CREEK     NOT AVBL
COLUMBINE      N/A       74  51  44 SE3               *PINALENO MTNS
GUTHRIE        N/A       91  52  27 S6G16             *SW OF GUTHRIE
$$

AZZ502-503-513-272215-
LOCATION       SKY/WX    TMP DP  RH WIND       PRES   REMARKS
NOGALES        MOSUNNY   90  57  32 CALM      30.06F
SELLS          N/A       94  64  38 NE5               *
SASABE         N/A       95  64  36 SW4               *ALTAR VLY
HOPKINS        N/A       84  55  37 N4G12             *SANTA RITA MTNS
CARR CYN       N/A       91  55  30 SW3               *W OF HEREFORD
$$

AZZ507-508-512-272215-
LOCATION       SKY/WX    TMP DP  RH WIND       PRES   REMARKS
SIERRA VISTA   MOSUNNY   93  55  27 VRB6      30.11F
DOUGLAS        MOSUNNY   90  64  42 NE9G21    30.06F
EMPIRE MTNS    NOT AVBL
MULESHOE RANCH N/A       93  56  29 NW11G20           *PRESERVE
HEADQUARTERS   NOT AVBL
$$

.............................NOTES.............................
THIS IS AN AUTOMATED COLLECTIVE WITH MINIMAL QUALITY CONTROL.
PIMA CO DEQ SITES HAVE NONSTANDARD WIND SENSOR HEIGHTS.
PIMA CO DEQ SITES DO NOT REPORT WIND GUSTS.
* INDICATES WIND SENSORS LOCATED AT 20 FEET INSTEAD OF 33 FEET.
..............................KEY..............................
SKY/WX - SKY CONDITION/WEATHER
TMP    - TEMPERATURE IN FAHRENHEIT
DP     - DEWPOINT IN FAHRENHEIT
RH     - RELATIVE HUMIDITY IN PERCENT
WIND   - DIRECTION AND SPEED IN MILES PER HOUR (MPH)
VRB    - VARIABLE WIND DIRECTION
PRES   - MEAN SEA LEVEL PRESSURE IN INCHES OF MERCURY
         F - FALLING PRESSURE   R - RISING PRESSURE
         S - STEADY PRESSURE
VSB    - VISIBILITY IN MILES
HX     - HEAT INDEX IN FAHRENHEIT
WCI    - WIND CHILL INDEX IN FAHRENHEIT
N/A    - NOT AVAILABLE
AFB    - AIR FORCE BASE
         DAVIS-MONTHAN IS DAVIS-MONTHAN AIR FORCE BASE
CYN    - CANYON
MTNS   - MOUNTAINS
NCA    - NATIONAL CONSERVATION AREA
NR     - NEAR
VLY    - VALLEY
CONTL  - CONTINENTAL
PIMA CO DEQ - PIMA COUNTY DEPT OF ENVIRONMENTAL QUALITY



USA.gov is the U.S. government's official web portal to all federal, state and local government web resources and services.